Current Weather Conditions: station 62136

sailwx.info

Wind from 140

Air temperature 4.8° C
Visibility: greater than 27.0 NM
Dewpoint 1.1° C

Last reported at 2018-Dec-14 05:00 UTC.
Time now 2018-Dec-14 06:35 UTC

Location: N 54°24' E 002°36'.
View on Google Maps.

See reports from other nearby stations

  
Tides and Currents Weather Stations Pressure Air Temp Water Temp Dewpoint Dewpoint Depression Visibility Wind Speed Wind Dir Waves Ship Positions
date/time (UTC)wind fromknots sea level pressurealtimeterstation pressurevisibilityair tempwater tempwave heightnotes
2018-Dec-14 05:00 140 27.0 4.8
2018-Dec-14 04:00 080 27.0 5.5
2018-Dec-14 03:00 120 27.0 5.4
2018-Dec-14 02:00
2018-Dec-14 01:00 080 10.8 4.9
2018-Dec-14 00:00 110 10.8 4.0
2018-Dec-13 23:00 120 27.0 4.7
2018-Dec-13 22:00 090 27.0 5.4
2018-Dec-13 21:00 080 10.8 5.0
2018-Dec-13 20:00 080 10.8 5.4
2018-Dec-13 19:00 120 10.8 4.5
2018-Dec-13 18:00 120 10.8 5.2
2018-Dec-13 17:00 110 27.0 5.8
2018-Dec-13 16:00 120 27.0 5.7
2018-Dec-13 15:00 100 10.8 5.3
2018-Dec-13 14:00 110 27.0 5.5
2018-Dec-13 13:00 110 27.0 5.5
2018-Dec-13 12:00 130 27.0 5.4
2018-Dec-13 11:00 120 27.0 5.6
2018-Dec-13 10:00 130 27.0 5.8
2018-Dec-13 09:00 130 27.0 5.8
2018-Dec-13 08:00 130 27.0 5.9
2018-Dec-13 07:00 120 27.0 5.8
2018-Dec-13 06:00 120 27.0 6.0
2018-Dec-13 05:00 130 27.0 6.1
2018-Dec-13 04:00 130 27.0 6.2
2018-Dec-13 03:00 130 27.0 6.4
2018-Dec-13 02:00 140 27.0 6.1
2018-Dec-13 01:00 130 27.0 5.8
2018-Dec-13 00:00 140 27.0 5.5
2018-Dec-12 23:00 140 27.0 5.9
2018-Dec-12 22:00 140 27.0 6.2
2018-Dec-12 21:00 130 27.0 5.9
2018-Dec-12 20:00 130 27.0 6.2
2018-Dec-12 19:00 130 27.0 6.1
2018-Dec-12 18:00 140 27.0 6.3
2018-Dec-12 17:00 130 27.0 6.7
2018-Dec-12 16:00 140 27.0 6.9
2018-Dec-12 15:00 140 27.0 6.9
2018-Dec-12 14:00 140 27.0 7.0
2018-Dec-12 13:00 140 27.0 7.4
2018-Dec-12 12:00 140 27.0 7.4
2018-Dec-12 11:00 150 27.0 6.8
2018-Dec-12 10:00 140 27.0 7.5
2018-Dec-12 09:00 140 27.0 7.1
2018-Dec-12 08:00 150 27.0 7.0
2018-Dec-12 07:00 100 27.0 7.3
2018-Dec-12 06:00 120 27.0 7.6